| time (UTC) | temp F | wind direction | speed knots | gust knots | rain 1hr in | rain 24hr in | rain mn in | humidity % | barometer mb |
| 20260510043023 | 76 | 119 | 13.9 | 20.0 | 0.00 | 0.01 | 0.01 | 92 | 1012.2 |
| 20260510041521 | 76 | 147 | 15.6 | 22.6 | 0.00 | 0.01 | 0.01 | 92 | 1012.5 |
| 20260510040021 | 76 | 123 | 15.6 | 21.7 | 0.00 | 0.01 | 0.01 | 92 | 1013.2 |
| 20260510034520 | 76 | 93 | 15.6 | 22.6 | 0.00 | 0.01 | 0.01 | 93 | 1013.2 |
| 20260510033019 | 76 | 99 | 15.6 | 24.3 | 0.00 | 0.01 | 0.01 | 93 | 1013.1 |
| 20260510031532 | 76 | 96 | 11.3 | 18.2 | 0.00 | 0.01 | 0.01 | 93 | 1012.9 |
| 20260510030020 | 76 | 106 | 10.4 | 15.6 | 0.00 | 0.01 | 0.01 | 93 | 1012.8 |
| 20260510024521 | 76 | 88 | 10.4 | 14.8 | 0.00 | 0.01 | 0.01 | 93 | 1012.8 |
| 20260510023013 | 76 | 115 | 13.9 | 20.0 | 0.00 | 0.01 | 0.01 | 92 | 1012.2 |
| 20260510021511 | 76 | 101 | 13.0 | 18.2 | 0.00 | 0.01 | 0.01 | 92 | 1012.3 |
| 20260510020010 | 77 | 80 | 10.4 | 14.8 | 0.00 | 0.01 | 0.01 | 92 | 1011.8 |
| 20260510014509 | 76 | 93 | 9.6 | 13.0 | 0.00 | 0.01 | 0.01 | 92 | 1011.6 |
| 20260510013009 | 76 | 153 | 9.6 | 13.9 | 0.00 | 0.01 | 0.01 | 92 | 1010.9 |
| 20260510011509 | 77 | 120 | 7.8 | 12.2 | 0.00 | 0.01 | 0.01 | 92 | 1010.8 |
| 20260510010008 | 77 | 126 | 8.7 | 13.9 | 0.00 | 0.01 | 0.01 | 91 | 1010.7 |
| 20260510004507 | 77 | 112 | 11.3 | 15.6 | 0.00 | 0.01 | 0.01 | 91 | 1010.5 |
| 20260510003021 | 77 | 135 | 11.3 | 18.2 | 0.00 | 0.01 | 0.01 | 91 | 1009.9 |
| 20260510001506 | 77 | 118 | 10.4 | 18.2 | 0.00 | 0.01 | 0.01 | 90 | 1010.0 |
| 20260510000005 | 77 | 126 | 13.0 | 17.4 | 0.00 | 0.01 | 0.01 | 90 | 1010.0 |
| 20260509234513 | 78 | 113 | 12.2 | 18.2 | 0.00 | 0.01 | 0.01 | 89 | 1010.1 |
| 20260509233004 | 79 | 149 | 11.3 | 17.4 | 0.00 | 0.01 | 0.01 | 88 | 1010.3 |
| 20260509231504 | 81 | 103 | 12.2 | 17.4 | 0.00 | 0.01 | 0.01 | 85 | 1010.1 |
| 20260509230002 | 82 | 138 | 7.0 | 12.2 | 0.00 | 0.01 | 0.01 | 83 | 1009.9 |
| 20260509224501 | 83 | 128 | 5.2 | 8.7 | 0.00 | 0.01 | 0.01 | 81 | 1009.6 |
| 20260509223001 | 84 | 124 | 4.3 | 7.8 | 0.00 | 0.01 | 0.01 | 81 | 1009.3 |
| 20260509221601 | 84 | 140 | 5.2 | 7.0 | 0.00 | 0.01 | 0.01 | 80 | 1009.1 |
| 20260509221501 | 84 | 132 | 4.3 | 7.0 | 0.00 | 0.01 | 0.01 | 80 | 1009.2 |
| 20260509220059 | 85 | 150 | 4.3 | 7.8 | 0.00 | 0.01 | 0.01 | 79 | 1009.1 |
| 20260509214558 | 85 | 173 | 1.7 | 4.3 | 0.00 | 0.01 | 0.01 | 80 | 1009.1 |
| 20260509213101 | 85 | 145 | 1.7 | 6.1 | 0.00 | 0.01 | 0.01 | 80 | 1009.1 |
| 20260509211603 | 84 | 145 | 3.5 | 7.0 | 0.00 | 0.01 | 0.01 | 80 | 1009.2 |
| 20260509210101 | 85 | 158 | 1.7 | 4.3 | 0.00 | 0.01 | 0.01 | 79 | 1009.1 |
| 20260509204555 | 84 | 148 | 1.7 | 4.3 | 0.00 | 0.01 | 0.01 | 80 | 1009.2 |
| 20260509203053 | 84 | 360 | 3.5 | 7.0 | 0.00 | 0.01 | 0.01 | 80 | 1009.3 |
| 20260509201551 | 84 | 262 | 3.5 | 7.0 | 0.00 | 0.01 | 0.01 | 76 | 1009.4 |
| 20260509200053 | 82 | 161 | 0.0 | 2.6 | 0.00 | 0.01 | 0.01 | 85 | 1009.6 |
| 20260509194547 | 82 | 139 | 0.9 | 3.5 | 0.00 | 0.01 | 0.01 | 84 | 1009.8 |
| 20260509193045 | 82 | 121 | 0.9 | 7.0 | 0.00 | 0.01 | 0.01 | 83 | 1009.9 |
| 20260509191543 | 81 | 31 | 3.5 | 6.1 | 0.00 | 0.01 | 0.01 | 86 | 1009.9 |
| 20260509190042 | 80 | 37 | 3.5 | 7.0 | 0.00 | 0.01 | 0.01 | 91 | 1009.8 |
| 20260509184538 | 79 | 55 | 3.5 | 6.1 | 0.00 | 0.01 | 0.01 | 91 | 1010.5 |
| 20260509183050 | 79 | 109 | 2.6 | 5.2 | 0.00 | 0.01 | 0.01 | 91 | 1010.8 |
| 20260509181545 | 79 | 81 | 4.3 | 7.8 | 0.00 | 0.01 | 0.01 | 91 | 1011.0 |
| 20260509180037 | 79 | 118 | 2.6 | 6.1 | 0.00 | 0.01 | 0.01 | 91 | 1011.1 |
| 20260509174537 | 79 | 117 | 2.6 | 6.1 | 0.00 | 0.01 | 0.01 | 91 | 1011.2 |
| 20260509173036 | 79 | 117 | 1.7 | 6.1 | 0.00 | 0.01 | 0.01 | 91 | 1011.2 |
| 20260509171535 | 79 | 134 | 2.6 | 7.0 | 0.00 | 0.01 | 0.01 | 91 | 1011.3 |
| 20260509170035 | 79 | 150 | 5.2 | 9.6 | 0.00 | 0.01 | 0.01 | 92 | 1011.4 |
| 20260509164533 | 79 | 155 | 2.6 | 4.3 | 0.00 | 0.01 | 0.01 | 94 | 1011.4 |
| 20260509163033 | 78 | 9 | 1.7 | 8.7 | 0.00 | 0.01 | 0.01 | 95 | 1011.4 |
| 20260509161531 | 77 | 304 | 1.7 | 3.5 | 0.00 | 0.01 | 0.01 | 95 | 1011.3 |
| 20260509160028 | 77 | 94 | 0.0 | 2.6 | 0.00 | 0.01 | 0.01 | 95 | 1011.4 |
| 20260509154527 | 76 | 128 | 7.8 | 12.2 | 0.00 | 0.02 | 0.01 | 95 | 1010.6 |
| 20260509153027 | 76 | 142 | 0.9 | 2.6 | 0.00 | 0.02 | 0.01 | 95 | 1011.4 |
| 20260509151526 | 76 | 235 | 1.7 | 3.5 | 0.00 | 0.02 | 0.01 | 95 | 1011.7 |
| 20260509150026 | 76 | 192 | 4.3 | 6.1 | 0.00 | 0.02 | 0.01 | 95 | 1011.7 |
| 20260509144534 | 76 | 251 | 1.7 | 2.6 | 0.00 | 0.02 | 0.01 | 95 | 1011.8 |
| 20260509143025 | 77 | 130 | 0.9 | 3.5 | 0.00 | 0.02 | 0.01 | 95 | 1011.1 |
| 20260509141525 | 76 | 55 | 0.9 | 3.5 | 0.00 | 0.02 | 0.01 | 95 | 1011.5 |
| 20260509140125 | 76 | 281 | 1.7 | 3.5 | 0.00 | 0.02 | 0.01 | 95 | 1011.6 |
| 20260509134523 | 77 | 295 | 0.9 | 2.6 | 0.00 | 0.02 | 0.01 | 95 | 1011.2 |
| 20260509133022 | 76 | 141 | 0.0 | 0.9 | 0.00 | 0.02 | 0.01 | 95 | 1011.0 |
| 20260509131519 | 76 | 136 | 2.6 | 4.3 | 0.00 | 0.02 | 0.01 | 95 | 1010.9 |
| 20260509130018 | 75 | 136 | 2.6 | 7.0 | 0.01 | 0.02 | 0.01 | 95 | 1010.8 |
| 20260509124517 | 75 | 150 | 1.7 | 3.5 | 0.01 | 0.02 | 0.01 | 95 | 1011.0 |
| 20260509123017 | 75 | 59 | 0.0 | 1.7 | 0.01 | 0.02 | 0.01 | 95 | 1011.0 |
| 20260509121523 | 74 | 121 | 0.9 | 1.7 | 0.01 | 0.02 | 0.01 | 95 | 1010.9 |
| 20260509120017 | 74 | 10 | 1.7 | 2.6 | 0.00 | 0.01 | 0.00 | 95 | 1011.1 |
| 20260509114515 | 74 | 18 | 3.5 | 6.1 | 0.00 | 0.01 | 0.00 | 95 | 1011.1 |
| 20260509113016 | 74 | 313 | 1.7 | 2.6 | 0.00 | 0.01 | 0.00 | 95 | 1011.4 |
| 20260509111514 | 74 | 243 | 0.9 | 2.6 | 0.00 | 0.01 | 0.00 | 95 | 1010.7 |
| 20260509110013 | 75 | 243 | 0.9 | 1.7 | 0.00 | 0.01 | 0.00 | 95 | 1010.4 |
| 20260509104513 | 75 | 243 | 1.7 | 2.6 | 0.00 | 0.01 | 0.00 | 95 | 1010.6 |
| 20260509103009 | 75 | 192 | 2.6 | 4.3 | 0.00 | 0.01 | 0.00 | 95 | 1010.5 |
| 20260509101512 | 75 | 142 | 1.7 | 2.6 | 0.00 | 0.01 | 0.00 | 95 | 1010.2 |
| 20260509100008 | 75 | 360 | 0.9 | 3.5 | 0.00 | 0.01 | 0.00 | 95 | 1010.3 |
| 20260509094507 | 75 | 128 | 2.6 | 4.3 | 0.00 | 0.01 | 0.00 | 95 | 1010.0 |
| 20260509093008 | 75 | 87 | 2.6 | 5.2 | 0.00 | 0.01 | 0.00 | 95 | 1010.0 |
| 20260509091506 | 75 | 111 | 3.5 | 6.1 | 0.00 | 0.01 | 0.00 | 95 | 1010.0 |
| 20260509090005 | 76 | 360 | 2.6 | 4.3 | 0.00 | 0.01 | 0.00 | 95 | 1010.0 |
| 20260509084513 | 76 | 138 | 1.7 | 3.5 | 0.00 | 0.01 | 0.00 | 95 | 1010.3 |
| 20260509083004 | 76 | 133 | 2.6 | 3.5 | 0.00 | 0.01 | 0.00 | 95 | 1010.4 |
| 20260509081503 | 76 | 120 | 0.9 | 2.6 | 0.00 | 0.01 | 0.00 | 95 | 1010.6 |
| 20260509080008 | 76 | 123 | 1.7 | 4.3 | 0.00 | 0.01 | 0.00 | 95 | 1010.5 |
| 20260509074502 | 76 | 360 | 1.7 | 6.1 | 0.00 | 0.01 | 0.00 | 95 | 1010.5 |
| 20260509073001 | 76 | 155 | 3.5 | 6.1 | 0.00 | 0.01 | 0.00 | 94 | 1010.4 |
| 20260509071600 | 76 | 140 | 5.2 | 8.7 | 0.00 | 0.01 | 0.00 | 94 | 1010.3 |
| 20260509070059 | 76 | 155 | 7.0 | 9.6 | 0.00 | 0.01 | 0.00 | 94 | 1010.5 |
| 20260509064614 | 76 | 360 | 7.0 | 10.4 | 0.00 | 0.01 | 0.00 | 94 | 1010.6 |
| 20260509063057 | 76 | 115 | 6.1 | 9.6 | 0.00 | 0.01 | 0.00 | 94 | 1010.6 |
| 20260509061554 | 76 | 131 | 6.1 | 10.4 | 0.00 | 0.01 | 0.00 | 94 | 1010.5 |
| 20260509060052 | 76 | 119 | 7.0 | 11.3 | 0.00 | 0.01 | 0.00 | 94 | 1010.7 |
| 20260509054553 | 76 | 162 | 7.8 | 11.3 | 0.00 | 0.01 | 0.00 | 94 | 1010.9 |
| 20260509053052 | 76 | 160 | 8.7 | 12.2 | 0.00 | 0.01 | 0.00 | 94 | 1011.0 |
| 20260509051557 | 76 | 360 | 7.0 | 10.4 | 0.00 | 0.01 | 0.00 | 94 | 1011.3 |
| 20260509050047 | 76 | 121 | 5.2 | 8.7 | 0.00 | 0.01 | 0.00 | 94 | 1011.7 |
| 20260509044544 | 76 | 131 | 4.3 | 7.8 | 0.00 | 0.01 | 0.01 | 94 | 1011.8 |